Simultaneous Nadir Overpasses (SNOs) Predictions

Prediction of SNOs between NOAA-19 and NPP Satellite Orbit:

Table of predicted SNOs for the next 14.0 days since TLE Epoch: 5/31/2014
Index Date (NOAA-19) Time (NOAA-19) Lat,Lon (NOAA-19) SZA (NOAA-19 ) Date (NPP) Time (NPP) Lat,Lon (NPP) SZA (NPP ) Distance(km) Time Diff (sec)
1 06/03/2014 05:00:41 -81.01,-128.99 117.49 06/03/2014 05:01:46 -81.01,-129.05 117.52 1.06 65
2 06/03/2014 05:51:48 81.01, 38.26 62.51 06/03/2014 05:52:31 81.00, 38.33 62.47 1.26 43
3 06/03/2014 06:42:43 -80.99,-153.89 117.59 06/03/2014 06:43:15 -80.99,-154.06 117.58 2.90 32
4 06/03/2014 07:33:50 80.99, 13.36 62.41 06/03/2014 07:34:00 80.99, 13.32 62.41 0.59 10
5 06/03/2014 08:24:47 -81.00,-179.54 117.58 06/03/2014 08:24:45 -80.99,-179.44 117.59 1.83 2
6 06/03/2014
